| time (UTC) | temp F | wind direction | speed knots | gust knots | rain 1hr in | rain 24hr in | rain mn in | humidity % | barometer mb |
| 20260504004600 | 56 | 0 | 0.0 | 0.0 | 0.00 | 0.00 | 0.00 | 38 | 1011.9 |
| 20260504003055 | 57 | 0 | 0.0 | 3.5 | 0.00 | 0.00 | 0.00 | 36 | 1011.6 |
| 20260504001554 | 58 | 0 | 0.0 | 3.5 | 0.00 | 0.00 | 0.00 | 34 | 1011.2 |
| 20260504000135 | 58 | 275 | 1.7 | 5.2 | 0.00 | 0.00 | 0.00 | 33 | 1011.0 |
| 20260503234601 | 59 | 273 | 0.9 | 7.0 | 0.00 | 0.00 | 0.00 | 31 | 1010.9 |
| 20260503233057 | 60 | 290 | 2.6 | 6.1 | 0.00 | 0.00 | 0.00 | 30 | 1010.8 |
| 20260503231557 | 60 | 0 | 1.7 | 8.7 | 0.00 | 0.00 | 0.00 | 29 | 1010.7 |
| 20260503230058 | 61 | 260 | 2.6 | 7.0 | 0.00 | 0.00 | 0.00 | 29 | 1010.6 |
| 20260503224556 | 61 | 299 | 1.7 | 9.6 | 0.00 | 0.00 | 0.00 | 29 | 1010.6 |
| 20260503223052 | 61 | 292 | 2.6 | 8.7 | 0.00 | 0.00 | 0.00 | 28 | 1010.5 |
| 20260503221558 | 62 | 275 | 3.5 | 10.4 | 0.00 | 0.00 | 0.00 | 28 | 1010.4 |
| 20260503220056 | 62 | 302 | 3.5 | 10.4 | 0.00 | 0.00 | 0.00 | 28 | 1010.4 |
| 20260503214556 | 61 | 296 | 3.5 | 13.0 | 0.00 | 0.00 | 0.00 | 28 | 1010.6 |
| 20260503213107 | 62 | 261 | 3.5 | 9.6 | 0.00 | 0.00 | 0.00 | 28 | 1010.4 |
| 20260503211613 | 61 | 298 | 2.6 | 11.3 | 0.00 | 0.00 | 0.00 | 28 | 1010.5 |
| 20260503210055 | 61 | 277 | 4.3 | 13.9 | 0.00 | 0.00 | 0.00 | 28 | 1010.8 |
| 20260503204555 | 61 | 323 | 2.6 | 14.8 | 0.00 | 0.00 | 0.00 | 28 | 1010.5 |
| 20260503203107 | 61 | 271 | 6.1 | 13.9 | 0.00 | 0.00 | 0.00 | 27 | 1010.6 |
| 20260503201556 | 61 | 300 | 5.2 | 13.0 | 0.00 | 0.00 | 0.00 | 27 | 1010.6 |
| 20260503200053 | 61 | 259 | 4.3 | 10.4 | 0.00 | 0.00 | 0.00 | 28 | 1011.0 |
| 20260503194558 | 60 | 276 | 2.6 | 9.6 | 0.00 | 0.00 | 0.00 | 29 | 1010.7 |
| 20260503193054 | 60 | 251 | 5.2 | 15.6 | 0.00 | 0.00 | 0.00 | 29 | 1011.1 |
| 20260503191559 | 60 | 304 | 3.5 | 12.2 | 0.00 | 0.00 | 0.00 | 30 | 1011.2 |
| 20260503190053 | 59 | 229 | 3.5 | 11.3 | 0.00 | 0.00 | 0.00 | 31 | 1011.2 |
| 20260503184551 | 58 | 250 | 3.5 | 11.3 | 0.00 | 0.00 | 0.00 | 33 | 1011.4 |
| 20260503183053 | 57 | 313 | 2.6 | 11.3 | 0.00 | 0.00 | 0.00 | 35 | 1011.5 |
| 20260503181602 | 57 | 302 | 4.3 | 11.3 | 0.00 | 0.00 | 0.00 | 36 | 1011.9 |
| 20260503174557 | 54 | 294 | 3.5 | 10.4 | 0.00 | 0.00 | 0.00 | 36 | 1012.0 |
| 20260503173100 | 55 | 301 | 2.6 | 10.4 | 0.00 | 0.00 | 0.00 | 38 | 1012.2 |
| 20260503171553 | 55 | 60 | 2.6 | 10.4 | 0.00 | 0.00 | 0.00 | 38 | 1012.0 |
| 20260503081557 | 48 | 0 | 0.9 | 5.2 | 0.00 | 0.00 | 0.00 | 50 | 1010.4 |
| 20260503071603 | 49 | 38 | 0.0 | 3.5 | 0.00 | 0.00 | 0.00 | 48 | 1010.3 |
| 20260503060107 | 51 | 0 | 0.0 | 0.9 | 0.00 | 0.00 | 0.00 | 48 | 1010.7 |
| 20260503054556 | 51 | 0 | 0.0 | 2.6 | 0.00 | 0.00 | 0.00 | 47 | 1010.7 |
| 20260503053055 | 52 | 22 | 0.0 | 3.5 | 0.00 | 0.00 | 0.00 | 45 | 1010.6 |
| 20260503051555 | 52 | 0 | 0.0 | 2.6 | 0.00 | 0.00 | 0.00 | 45 | 1010.6 |
| 20260503050058 | 52 | 22 | 0.0 | 3.5 | 0.00 | 0.00 | 0.00 | 44 | 1011.0 |
| 20260503044605 | 52 | 22 | 0.9 | 7.0 | 0.00 | 0.00 | 0.00 | 43 | 1011.0 |
| 20260503043100 | 52 | 0 | 0.0 | 2.6 | 0.00 | 0.00 | 0.00 | 43 | 1011.0 |
| 20260503041556 | 53 | 0 | 0.0 | 3.5 | 0.00 | 0.00 | 0.00 | 43 | 1011.1 |
| 20260503040100 | 53 | 0 | 0.0 | 3.5 | 0.00 | 0.00 | 0.00 | 44 | 1011.1 |
| 20260503034558 | 53 | 300 | 0.0 | 2.6 | 0.00 | 0.00 | 0.00 | 42 | 1011.0 |
| 20260503033109 | 53 | 300 | 0.0 | 2.6 | 0.00 | 0.00 | 0.00 | 42 | 1010.8 |
| 20260503031600 | 53 | 300 | 0.0 | 2.6 | 0.00 | 0.00 | 0.00 | 43 | 1010.7 |
| 20260503030055 | 54 | 0 | 0.0 | 2.6 | 0.00 | 0.00 | 0.00 | 42 | 1010.7 |
| 20260503024555 | 54 | 0 | 0.9 | 6.1 | 0.00 | 0.00 | 0.00 | 39 | 1010.6 |
| 20260503023101 | 55 | 311 | 0.0 | 2.6 | 0.00 | 0.00 | 0.00 | 41 | 1010.7 |
| 20260503021555 | 55 | 311 | 0.0 | 3.5 | 0.00 | 0.00 | 0.00 | 40 | 1010.7 |
| 20260503020052 | 55 | 0 | 0.9 | 3.5 | 0.00 | 0.00 | 0.00 | 40 | 1010.6 |
| 20260503014557 | 56 | 0 | 0.0 | 2.6 | 0.00 | 0.00 | 0.00 | 39 | 1010.8 |
| 20260503013105 | 56 | 313 | 0.0 | 2.6 | 0.00 | 0.00 | 0.00 | 39 | 1010.9 |
| 20260503011604 | 57 | 0 | 0.9 | 4.3 | 0.00 | 0.00 | 0.00 | 37 | 1010.9 |
| 20260503010058 | 57 | 0 | 0.9 | 7.0 | 0.00 | 0.00 | 0.00 | 37 | 1010.6 |